Location: Unspecified
(0.0000°N, 0.0000°E)
Time: 00:43:10
(UTC+00:00)

deb Explorer IX - Pass Details

Date: 13 December 2018
Orbit: 538 x 1115 km, 38.8° (Epoch: 17 January)

Event Time Altitude Azimuth Distance (km) Brightness Sun altitude
Exits shadow 05:40:03 - 267° (W) 3,645 ? -3.2°
Rises 05:40:11 0° 266° (W) 3,614 ? -3.2°
Reaches altitude 10° 05:44:31 10° 239° (WSW) 2,792 ? -2.2°
Maximum altitude 05:47:22 13° 214° (SW) 2,653 ? -1.5°
Drops below altitude 10° 05:50:20 10° 189° (S) 2,913 ? -0.9°
Sets 05:55:07 0° 163° (SSE) 3,927 ? 0.2°
